DW7589 Weather Reports


time (UTC)temp
C
wind
direction
speed
KPH
gust
KPH
rain 1hr
cm
rain 24hr
cm
rain mn
cm
humidity
%
barometer
mb
20260901110745 25 0 0.0 0.0 0.00 0.00 0.00 82 1016.1
20260901110244 25 0 0.0 0.0 0.00 0.00 0.00 82 1016.0
20260901105744 25 0 0.0 0.0 0.00 0.00 0.00 81 1016.0
20260901105244 25 0 0.0 0.0 0.00 0.00 0.00 80 1016.1
20260901104244 25 0 0.0 0.0 0.00 0.00 0.00 80 1016.1
20260901103743 25 0 0.0 1.6 0.00 0.00 0.00 79 1016.0
20260901103244 25 0 0.0 1.6 0.00 0.00 0.00 79 1016.0
20260901102744 25 0 0.0 0.0 0.00 0.00 0.00 78 1016.0
20260901102243 25 0 0.0 0.0 0.00 0.00 0.00 78 1015.9
20260901101744 26 0 0.0 0.0 0.00 0.00 0.00 77 1015.9
20260901101244 26 0 0.0 1.6 0.00 0.00 0.00 77 1015.9
20260901100743 26 0 0.0 1.6 0.00 0.00 0.00 76 1015.9
20260901100243 26 0 0.0 3.2 0.00 0.00 0.00 76 1015.9
20260901095244 26 0 0.0 3.2 0.00 0.00 0.00 76 1015.9
20260901094743 26 0 0.0 1.6 0.00 0.00 0.00 75 1015.8
20260901094243 26 0 0.0 0.0 0.00 0.00 0.00 75 1015.8
20260901093744 26 0 0.0 0.0 0.00 0.00 0.00 75 1015.8
20260901093244 26 0 0.0 0.0 0.00 0.00 0.00 75 1015.8
20260901092743 26 0 0.0 1.6 0.00 0.00 0.00 75 1015.8
20260901092244 26 0 0.0 1.6 0.00 0.00 0.00 74 1015.8
20260901091743 26 0 0.0 1.6 0.00 0.00 0.00 74 1015.8
20260901091244 26 0 0.0 1.6 0.00 0.00 0.00 73 1015.9
20260901090745 27 0 0.0 0.0 0.00 0.00 0.00 73 1015.8
20260901090243 27 0 0.0 1.6 0.00 0.00 0.00 73 1015.8
20260901085744 27 0 0.0 1.6 0.00 0.00 0.00 73 1015.7
20260901085243 27 0 0.0 0.0 0.00 0.00 0.00 73 1015.7
20260901084745 27 0 0.0 1.6 0.00 0.00 0.00 72 1015.6
20260901084244 27 0 0.0 1.6 0.00 0.00 0.00 72 1015.6
20260901083743 27 0 0.0 1.6 0.00 0.00 0.00 71 1015.6
20260901082744 27 0 0.0 1.6 0.00 0.00 0.00 70 1015.6
20260901081745 27 0 0.0 1.6 0.00 0.00 0.00 69 1015.5
20260901081244 27 0 0.0 1.6 0.00 0.00 0.00 69 1015.5
20260901080745 27 0 0.0 1.6 0.00 0.00 0.00 69 1015.5
20260901080244 27 0 0.0 3.2 0.00 0.00 0.00 69 1015.5
20260901075745 27 175 1.6 3.2 0.00 0.00 0.00 68 1015.5
20260901075243 27 175 1.6 3.2 0.00 0.00 0.00 68 1015.5
20260901074745 27 171 1.6 3.2 0.00 0.00 0.00 67 1015.4
20260901074245 27 170 1.6 3.2 0.00 0.00 0.00 67 1015.4
20260901073743 27 172 1.6 3.2 0.00 0.00 0.00 67 1015.5
20260901073243 27 168 1.6 4.8 0.00 0.00 0.00 66 1015.5
20260901072744 27 165 1.6 4.8 0.00 0.00 0.00 65 1015.4
20260901072244 27 168 1.6 4.8 0.00 0.00 0.00 65 1015.4
20260901071744 27 173 1.6 4.8 0.00 0.00 0.00 64 1015.4
20260901071245 27 171 1.6 4.8 0.00 0.00 0.00 64 1015.5
20260901070743 28 172 1.6 4.8 0.00 0.00 0.00 64 1015.4
20260901070246 28 170 1.6 4.8 0.00 0.00 0.00 63 1015.4
20260901065743 28 171 1.6 4.8 0.00 0.00 0.00 63 1015.3
20260901065243 28 176 3.2 6.4 0.00 0.00 0.00 62 1015.3
20260901064743 28 175 3.2 6.4 0.00 0.00 0.00 62 1015.4
20260901064244 28 173 3.2 6.4 0.00 0.00 0.00 61 1015.4
20260901063744 28 168 1.6 8.0 0.00 0.00 0.00 61 1015.3
20260901062744 28 169 1.6 6.4 0.00 0.00 0.00 61 1015.2
20260901062245 28 171 1.6 6.4 0.00 0.00 0.00 60 1015.1
20260901060744 28 174 3.2 6.4 0.00 0.00 0.00 59 1015.1
20260901060244 29 177 3.2 8.0 0.00 0.00 0.00 59 1015.1
20260901055744 29 175 3.2 8.0 0.00 0.00 0.00 58 1014.9
20260901055244 29 173 3.2 8.0 0.00 0.00 0.00 58 1014.8
20260901054744 29 170 3.2 9.7 0.00 0.00 0.00 58 1014.9
20260901054244 29 163 3.2 9.7 0.00 0.00 0.00 58 1014.9
20260901053244 29 160 3.2 8.0 0.00 0.00 0.00 58 1014.9
20260901052745 29 158 3.2 8.0 0.00 0.00 0.00 58 1014.9
20260901052244 29 157 3.2 6.4 0.00 0.00 0.00 58 1015.0
20260901050744 29 157 3.2 8.0 0.00 0.00 0.00 57 1014.7
20260901050244 29 157 3.2 4.8 0.00 0.00 0.00 57 1014.7
20260901045745 29 158 1.6 4.8 0.00 0.00 0.00 56 1014.6
20260901045244 29 162 1.6 4.8 0.00 0.00 0.00 55 1014.6
20260901044243 28 0 0.0 4.8 0.00 0.00 0.00 52 1014.5
20260901043744 28 0 0.0 1.6 0.00 0.00 0.00 51 1014.5
20260901042745 29 170 1.6 4.8 0.00 0.00 0.00 50 1014.5
20260901041744 29 0 0.0 1.6 0.00 0.00 0.00 50 1014.3
20260901041244 29 0 0.0 1.6 0.00 0.00 0.00 50 1014.2
20260901040744 29 0 0.0 1.6 0.00 0.00 0.00 51 1014.2
20260901040244 30 0 0.0 1.6 0.00 0.00 0.00 54 1014.2
20260901034744 30 0 0.0 1.6 0.00 0.00 0.00 53 1014.2
20260901034244 30 0 0.0 1.6 0.00 0.00 0.00 52 1014.2
20260901033244 30 0 0.0 1.6 0.00 0.00 0.00 53 1014.0
20260901032744 30 0 0.0 1.6 0.00 0.00 0.00 54 1014.0
20260901032244 30 0 0.0 1.6 0.00 0.00 0.00 53 1014.0
20260901031744 30 0 0.0 1.6 0.00 0.00 0.00 53 1014.0
20260901031244 30 0 0.0 1.6 0.00 0.00 0.00 52 1013.9
20260901030744 30 0 0.0 1.6 0.00 0.00 0.00 51 1013.9
20260901030244 31 0 0.0 1.6 0.00 0.00 0.00 51 1013.9
20260901025743 31 0 0.0 1.6 0.00 0.00 0.00 50 1013.8
20260901025244 31 0 0.0 1.6 0.00 0.00 0.00 49 1013.8
20260901024744 30 0 0.0 1.6 0.00 0.00 0.00 49 1013.7
20260901024244 31 0 0.0 1.6 0.00 0.00 0.00 48 1013.7
20260901023744 31 158 1.6 1.6 0.00 0.00 0.00 47 1013.7
20260901022744 31 158 1.6 1.6 0.00 0.00 0.00 47 1013.6
20260901022244 31 0 0.0 1.6 0.00 0.00 0.00 47 1013.5
20260901021744 31 0 0.0 1.6 0.00 0.00 0.00 47 1013.5
20260901021244 31 0 0.0 1.6 0.00 0.00 0.00 47 1013.4
20260901020744 31 0 0.0 1.6 0.00 0.00 0.00 46 1013.3
20260901020244 31 0 0.0 1.6 0.00 0.00 0.00 46 1013.3
20260901015745 32 0 0.0 1.6 0.00 0.00 0.00 45 1013.2
20260901015244 32 0 0.0 1.6 0.00 0.00 0.00 45 1013.2
20260901014744 32 0 0.0 1.6 0.00 0.00 0.00 44 1013.1
20260901014244 32 158 1.6 3.2 0.00 0.00 0.00 43 1013.1
20260901013744 32 158 1.6 3.2 0.00 0.00 0.00 42 1013.1
20260901013245 32 0 0.0 3.2 0.00 0.00 0.00 42 1013.0
20260901012744 33 158 1.6 3.2 0.00 0.00 0.00 41 1013.0
20260901012246 33 159 1.6 3.2 0.00 0.00 0.00 41 1012.9
20260901010245 33 160 1.6 3.2 0.00 0.00 0.00 39 1012.8
20260901005745 33 152 1.6 3.2 0.00 0.00 0.00 39 1012.9
20260901005245 34 149 1.6 4.8 0.00 0.00 0.00 38 1012.8
20260901004744 34 151 1.6 4.8 0.00 0.00 0.00 38 1012.9
20260901004244 35 149 3.2 4.8 0.00 0.00 0.00 38 1012.9
20260901003744 35 148 3.2 8.0 0.00 0.00 0.00 37 1012.8
20260901002744 35 149 3.2 6.4 0.00 0.00 0.00 36 1012.9
20260901002244 35 149 3.2 6.4 0.00 0.00 0.00 36 1012.9
20260901001745 35 148 3.2 6.4 0.00 0.00 0.00 36 1012.9
20260901001244 36 148 3.2 6.4 0.00 0.00 0.00 35 1012.8
20260901000746 36 149 3.2 8.0 0.00 0.00 0.00 35 1012.8
20260901000244 36 148 4.8 9.7 0.00 0.00 0.00 35 1012.8
20260831235745 36 146 4.8 9.7 0.00 0.00 0.00 35 1012.8
20260831235245 36 146 4.8 8.0 0.00 0.00 0.00 34 1012.8
20260831234744 36 150 4.8 8.0 0.00 0.00 0.00 33 1012.7
20260831234245 36 152 4.8 9.7 0.00 0.00 0.00 33 1012.7
20260831233745 36 151 4.8 9.7 0.00 0.00 0.00 33 1012.8
20260831233244 36 148 4.8 9.7 0.00 0.00 0.00 33 1012.8
20260831232746 37 144 4.8 9.7 0.00 0.00 0.00 33 1012.8
20260831232245 37 143 4.8 8.0 0.00 0.00 0.00 32 1012.8
20260831231744 37 143 4.8 9.7 0.00 0.00 0.00 32 1012.7
20260831231246 37 144 4.8 9.7 0.00 0.00 0.00 33 1012.8
20260831230746 37 146 4.8 11.3 0.00 0.00 0.00 33 1012.9
20260831230244 37 141 4.8 12.9 0.00 0.00 0.00 33 1013.0
20260831225745 37 142 4.8 12.9 0.00 0.00 0.00 32 1013.0
20260831225244 37 143 4.8 9.7 0.00 0.00 0.00 32 1013.0
20260831224745 37 146 4.8 11.3 0.00 0.00 0.00 32 1013.0
20260831224245 37 160 4.8 11.3 0.00 0.00 0.00 31 1012.9
20260831223245 37 151 4.8 9.7 0.00 0.00 0.00 30 1013.0
20260831222744 37 150 3.2 9.7 0.00 0.00 0.00 29 1013.1
20260831222246 37 151 3.2 8.0 0.00 0.00 0.00 29 1013.1
20260831221744 37 160 3.2 8.0 0.00 0.00 0.00 29 1013.1
20260831221245 37 158 3.2 11.3 0.00 0.00 0.00 29 1013.1
20260831220744 37 157 4.8 11.3 0.00 0.00 0.00 29 1013.1
20260831220245 37 164 4.8 8.0 0.00 0.00 0.00 29 1013.1
20260831215244 38 144 3.2 9.7 0.00 0.00 0.00 29 1013.3
20260831214745 38 146 3.2 8.0 0.00 0.00 0.00 28 1013.3
20260831214244 37 148 4.8 12.9 0.00 0.00 0.00 26 1013.3
20260831213745 37 144 4.8 12.9 0.00 0.00 0.00 28 1013.4
20260831212745 37 162 3.2 11.3 0.00 0.00 0.00 30 1013.5
20260831212245 37 173 3.2 6.4 0.00 0.00 0.00 32 1013.6
20260831211745 37 171 3.2 8.0 0.00 0.00 0.00 31 1013.6
20260831211246 37 161 4.8 9.7 0.00 0.00 0.00 32 1013.7
20260831210744 36 150 6.4 16.1 0.00 0.00 0.00 33 1013.9
20260831205744 37 162 4.8 12.9 0.00 0.00 0.00 33 1014.0
20260831205244 37 150 6.4 14.5 0.00 0.00 0.00 33 1014.1
20260831204744 37 144 6.4 14.5 0.00 0.00 0.00 33 1014.1
20260831204245 37 143 6.4 14.5 0.00 0.00 0.00 31 1014.3
20260831203746 37 142 6.4 12.9 0.00 0.00 0.00 34 1014.3
20260831203245 37 148 6.4 12.9 0.00 0.00 0.00 34 1014.4
20260831202744 36 156 4.8 12.9 0.00 0.00 0.00 35 1014.6
20260831202245 37 140 4.8 14.5 0.00 0.00 0.00 34 1014.6
20260831201245 37 142 6.4 14.5 0.00 0.00 0.00 36 1014.9
20260831200245 37 148 6.4 16.1 0.00 0.00 0.00 35 1015.0
20260831195745 37 152 6.4 12.9 0.00 0.00 0.00 36 1014.9
20260831194244 36 149 6.4 12.9 0.00 0.00 0.00 37 1015.1
20260831193246 36 149 6.4 11.3 0.00 0.00 0.00 37 1015.2
20260831192244 36 159 6.4 12.9 0.00 0.00 0.00 37 1015.4
20260831191245 36 141 6.4 16.1 0.00 0.00 0.00 37 1015.4
20260831190744 36 147 6.4 16.1 0.00 0.00 0.00 37 1015.6
20260831190245 36 153 4.8 9.7 0.00 0.00 0.00 38 1015.6
20260831185245 36 144 4.8 12.9 0.00 0.00 0.00 37 1015.7
20260831184745 36 143 6.4 14.5 0.00 0.00 0.00 39 1015.7
20260831184244 36 142 6.4 14.5 0.00 0.00 0.00 37 1015.8
20260831183745 36 141 4.8 12.9 0.00 0.00 0.00 38 1015.9
20260831183244 36 144 4.8 14.5 0.00 0.00 0.00 39 1015.9
20260831182745 36 149 4.8 14.5 0.00 0.00 0.00 38 1015.9
20260831182244 36 148 4.8 9.7 0.00 0.00 0.00 40 1016.0
20260831181744 36 152 4.8 11.3 0.00 0.00 0.00 40 1016.0
20260831181245 35 161 4.8 14.5 0.00 0.00 0.00 39 1016.1
20260831180744 35 157 6.4 14.5 0.00 0.00 0.00 40 1016.2
20260831175745 35 153 4.8 12.9 0.00 0.00 0.00 42 1016.3
20260831175246 35 165 4.8 14.5 0.00 0.00 0.00 40 1016.4
20260831174745 35 153 6.4 14.5 0.00 0.00 0.00 39 1016.5
20260831174244 35 145 4.8 14.5 0.00 0.00 0.00 40 1016.6
20260831173745 35 148 3.2 14.5 0.00 0.00 0.00 43 1016.7
20260831173245 35 159 3.2 8.0 0.00 0.00 0.00 44 1016.8
20260831172746 35 176 3.2 9.7 0.00 0.00 0.00 44 1016.9
20260831172245 35 166 4.8 11.3 0.00 0.00 0.00 45 1016.9
20260831171745 35 151 4.8 12.9 0.00 0.00 0.00 46 1016.9
20260831171245 35 142 4.8 12.9 0.00 0.00 0.00 46 1017.0
20260831170744 34 152 4.8 9.7 0.00 0.00 0.00 47 1017.1
20260831170245 34 161 4.8 12.9 0.00 0.00 0.00 47 1017.1
20260831165744 34 150 4.8 12.9 0.00 0.00 0.00 47 1017.1
20260831164746 33 147 4.8 12.9 0.00 0.00 0.00 48 1017.2
20260831164245 33 164 3.2 12.9 0.00 0.00 0.00 48 1017.1
20260831163745 33 175 3.2 9.7 0.00 0.00 0.00 49 1017.2
20260831163244 33 173 3.2 8.0 0.00 0.00 0.00 49 1017.3
20260831162745 33 184 3.2 9.7 0.00 0.00 0.00 49 1017.3
20260831162246 33 185 3.2 9.7 0.00 0.00 0.00 50 1017.3
20260831161245 33 155 3.2 9.7 0.00 0.00 0.00 48 1017.2
20260831160244 33 164 3.2 8.0 0.00 0.00 0.00 50 1017.3
20260831155745 32 169 3.2 9.7 0.00 0.00 0.00 52 1017.2
20260831154746 32 209 3.2 6.4 0.00 0.00 0.00 53 1017.1
20260831153744 32 201 3.2 11.3 0.00 0.00 0.00 56 1017.1
20260831152744 31 210 3.2 9.7 0.00 0.00 0.00 59 1017.1
20260831152245 31 191 3.2 8.0 0.00 0.00 0.00 60 1017.0
20260831151744 31 176 3.2 8.0 0.00 0.00 0.00 62 1017.0
20260831150244 30 247 4.8 11.3 0.00 0.00 0.00 66 1017.1
20260831145745 30 235 3.2 9.7 0.00 0.00 0.00 68 1017.1
20260831145245 30 211 3.2 6.4 0.00 0.00 0.00 69 1017.0
20260831144746 30 216 3.2 12.9 0.00 0.00 0.00 70 1017.1
20260831144245 29 224 4.8 12.9 0.00 0.00 0.00 70 1017.0
20260831143745 28 236 4.8 9.7 0.00 0.00 0.00 72 1017.0
20260831143245 28 232 3.2 9.7 0.00 0.00 0.00 73 1017.0
20260831142246 28 208 3.2 11.3 0.00 0.00 0.00 75 1016.9
20260831141745 28 212 3.2 11.3 0.00 0.00 0.00 76 1017.0
20260831141245 27 213 3.2 11.3 0.00 0.00 0.00 77 1016.9
20260831140746 27 220 4.8 11.3 0.00 0.00 0.00 79 1016.9
20260831140245 27 200 3.2 11.3 0.00 0.00 0.00 79 1016.9
20260831135745 27 199 1.6 8.0 0.00 0.00 0.00 80 1016.8
20260831134745 26 199 1.6 4.8 0.00 0.00 0.00 83 1016.8
20260831132745 25 0 0.0 3.2 0.00 0.00 0.00 86 1016.7
20260831132245 25 0 0.0 3.2 0.00 0.00 0.00 86 1016.7
20260831131745 25 0 0.0 3.2 0.00 0.00 0.00 86 1016.6
20260831131246 25 0 0.0 1.6 0.00 0.00 0.00 87 1016.5
20260831130745 25 177 1.6 3.2 0.00 0.00 0.00 87 1016.3
20260831130246 24 172 1.6 3.2 0.00 0.00 0.00 87 1016.3
20260831125746 24 0 0.0 3.2 0.00 0.00 0.00 87 1016.2
20260831125246 24 0 0.0 1.6 0.00 0.00 0.00 87 1016.2
20260831124745 24 0 0.0 1.6 0.00 0.00 0.00 87 1016.1
20260831124245 24 0 0.0 3.2 0.00 0.00 0.00 87 1016.1
20260831123745 24 0 0.0 3.2 0.00 0.00 0.00 87 1016.2
20260831123245 24 0 0.0 1.6 0.00 0.00 0.00 87 1016.1
20260831122245 24 159 1.6 3.2 0.00 0.00 0.00 87 1016.0
20260831121745 24 153 1.6 3.2 0.00 0.00 0.00 87 1015.9
20260831121247 24 152 1.6 4.8 0.00 0.00 0.00 87 1015.9
20260831120747 24 155 1.6 4.8 0.00 0.00 0.00 87 1015.7
20260831115745 24 156 1.6 3.2 0.00 0.00 0.00 86 1015.6
20260831115245 24 155 1.6 3.2 0.00 0.00 0.00 86 1015.4
20260831114745 24 154 1.6 3.2 0.00 0.00 0.00 85 1015.4
20260831114246 24 160 1.6 4.8 0.00 0.00 0.00 84 1015.5
20260831113747 24 0 0.0 4.8 0.00 0.00 0.00 84 1015.4
20260831113245 24 0 0.0 1.6 0.00 0.00 0.00 84 1015.3
20260831112246 24 0 0.0 1.6 0.00 0.00 0.00 84 1015.3
20260831111745 24 0 0.0 1.6 0.00 0.00 0.00 84 1015.2
20260831111247 25 0 0.0 1.6 0.00 0.00 0.00 83 1015.2